FW4300 Weather Reports


Display with metric or nautical units.
time (UTC)temp
F
wind
direction
speed
MPH
gust
MPH
rain 1hr
in
rain 24hr
in
rain mn
in
humidity
%
barometer
mb
20260502161014 87 191 0.0 0.0 0.00 0.00 0.00 58 1018.0
20260502160516 87 131 0.0 0.0 0.00 0.00 0.00 58 1017.9
20260502152008 86 193 0.0 0.0 0.00 0.00 0.00 61 1018.3
20260502151508 86 129 0.0 0.0 0.00 0.00 0.00 62 1018.3
20260502151008 85 115 0.0 0.0 0.00 0.00 0.00 62 1018.3
20260502150508 86 176 0.0 0.0 0.00 0.00 0.00 61 1018.3
20260502130554 81 153 0.0 0.0 0.00 0.00 0.00 67 1017.8
20260502123546 80 98 0.0 0.0 0.00 0.00 0.00 69 1017.6
20260502123109 80 108 0.0 0.0 0.00 0.00 0.00 69 1017.4
20260502122545 80 79 0.0 0.0 0.00 0.00 0.00 68 1017.4
20260502122047 80 78 0.0 0.0 0.00 0.00 0.00 69 1017.4
20260502121544 80 92 0.0 0.0 0.00 0.00 0.00 69 1017.4
20260502121044 79 206 0.0 0.0 0.00 0.00 0.00 69 1017.3
20260502120544 80 117 0.0 0.0 0.00 0.00 0.00 69 1017.3
20260502115542 80 122 0.0 0.0 0.00 0.00 0.00 69 1017.1
20260502115043 80 170 0.0 0.0 0.00 0.00 0.00 69 1017.0
20260502114541 80 162 0.0 0.0 0.00 0.00 0.00 69 1017.0
20260502114042 80 150 0.0 0.0 0.00 0.00 0.00 69 1017.0
20260502113538 79 123 0.0 0.0 0.00 0.00 0.00 70 1016.9
20260502113047 78 165 0.0 0.0 0.00 0.00 0.00 71 1017.0
20260502112535 77 158 0.0 0.0 0.00 0.00 0.00 78 1016.9
20260502112035 75 306 0.0 0.0 0.00 0.00 0.00 80 1016.8
20260502111536 74 306 0.0 0.0 0.00 0.00 0.00 80 1016.9
20260502111032 73 306 0.0 0.0 0.00 0.00 0.00 80 1016.8
20260502110532 73 306 0.0 0.0 0.00 0.00 0.00 80 1016.8
20260502110030 73 315 0.0 0.0 0.00 0.00 0.00 80 1016.7
20260502105530 73 326 0.0 0.0 0.00 0.00 0.00 80 1016.6
20260502105030 73 289 0.0 0.0 0.00 0.00 0.00 81 1016.6
20260502104532 73 289 0.0 0.0 0.00 0.00 0.00 81 1016.5
20260502104028 72 309 0.0 0.0 0.00 0.00 0.00 81 1016.4
20260502103527 72 330 0.0 0.0 0.00 0.00 0.00 81 1016.5
20260502103026 71 328 0.0 0.0 0.00 0.00 0.00 81 1016.4
20260502102525 0 0.0 0.0 0.00 0.00 0.00 1016.3
20260502102023 0 0.0 0.0 0.00 0.00 0.00 1016.4
20260502101522 0 0.0 0.0 0.00 0.00 0.00 1016.3
20260502101021 0 0.0 0.0 0.00 0.00 0.00 1016.3
20260502100519 0 0.0 0.0 0.00 0.00 0.00 1016.2
20260502091505 0 0.0 0.0 0.00 0.00 0.00 1015.6
20260502091005 0 0.0 0.0 0.00 0.00 0.00 1015.5
20260502090501 0 0.0 0.0 0.00 0.00 0.00 1015.4
20260502090106 0 0.0 0.0 0.00 0.00 0.00 1015.5
20260502071037 72 292 0.0 0.0 0.00 0.00 0.00 77 1015.3
20260502070536 72 280 0.0 0.0 0.00 0.00 0.00 76 1015.3
20260502070039 73 279 0.0 0.0 0.00 0.00 0.00 76 1015.3
20260502065535 73 277 0.0 0.0 0.00 0.00 0.00 76 1015.3
20260502065034 73 14 0.0 0.0 0.00 0.00 0.00 77 1015.3
20260502064546 73 14 0.0 0.0 0.00 0.00 0.00 77 1015.4
20260502064033 73 14 0.0 0.0 0.00 0.00 0.00 76 1015.4
20260502063532 72 333 0.0 0.0 0.00 0.00 0.00 76 1015.4
20260502063034 72 328 0.0 0.0 0.00 0.00 0.00 76 1015.4
20260502062532 72 312 0.0 0.0 0.00 0.00 0.00 76 1015.4
20260502062031 72 315 0.0 0.0 0.00 0.00 0.00 76 1015.4
20260502061532 72 315 0.0 0.0 0.00 0.00 0.00 75 1015.4
20260502061030 72 300 0.0 0.0 0.00 0.00 0.00 75 1015.4
20260502060529 72 300 0.0 0.0 0.00 0.00 0.00 75 1015.5
20260502060032 73 302 0.0 0.0 0.00 0.00 0.00 75 1015.5
20260502055529 73 299 0.0 0.0 0.00 0.00 0.00 75 1015.4
20260502055030 73 299 0.0 0.0 0.00 0.00 0.00 75 1015.4
20260502054534 73 299 0.0 0.0 0.00 0.00 0.00 75 1015.5
20260502054026 72 319 0.0 0.0 0.00 0.00 0.00 74 1015.5
20260502053525 73 322 0.0 0.0 0.00 0.00 0.00 74 1015.5
20260502053025 73 330 0.0 0.0 0.00 0.00 0.00 74 1015.5
20260502052525 73 330 0.0 0.0 0.00 0.00 0.00 74 1015.6
20260502052025 73 330 0.0 0.0 0.00 0.00 0.00 74 1015.7
20260502051529 73 330 0.0 0.0 0.00 0.00 0.00 74 1015.7
20260502051021 73 330 0.0 0.0 0.00 0.00 0.00 74 1015.8
20260502050521 73 356 0.0 0.0 0.00 0.00 0.00 74 1015.9
20260502050021 73 290 0.0 0.0 0.00 0.00 0.00 74 1015.9
20260502045523 73 274 0.0 0.0 0.00 0.00 0.00 74 1016.0
20260502045020 73 271 0.0 0.0 0.00 0.00 0.00 74 1016.0
20260502044519 73 271 0.0 0.0 0.00 0.00 0.00 74 1016.0
20260502044017 73 271 0.0 0.0 0.00 0.00 0.00 74 1016.1
20260502043517 73 259 0.0 0.0 0.00 0.00 0.00 73 1016.1
20260502043016 74 259 0.0 0.0 0.00 0.00 0.00 73 1016.3
20260502042516 74 259 0.0 0.0 0.00 0.00 0.00 73 1016.3
20260502042015 74 259 0.0 0.0 0.00 0.00 0.00 73 1016.4
20260502041515 74 259 0.0 0.0 0.00 0.00 0.00 73 1016.3
20260502041014 74 259 0.0 0.0 0.00 0.00 0.00 73 1016.4
20260502040516 74 259 0.0 0.0 0.00 0.00 0.00 73 1016.4
20260502040012 74 259 0.0 0.0 0.00 0.00 0.00 73 1016.5
20260502035514 74 259 0.0 0.0 0.00 0.00 0.00 73 1016.5
20260502035012 74 259 0.0 0.0 0.00 0.00 0.00 73 1016.6
20260502034511 74 241 0.0 0.0 0.00 0.00 0.00 72 1016.6
20260502034013 74 241 0.0 0.0 0.00 0.00 0.00 71 1016.6
20260502033511 74 241 0.0 0.0 0.00 0.00 0.00 70 1016.5
20260502033009 75 241 0.0 0.0 0.00 0.00 0.00 69 1016.5
20260502032509 75 234 0.0 0.0 0.00 0.00 0.00 68 1016.6
20260502032009 76 221 0.0 0.0 0.00 0.00 0.00 68 1016.6
20260502031509 76 213 0.0 0.0 0.00 0.00 0.00 68 1016.5
20260502031008 76 213 0.0 0.0 0.00 0.00 0.00 68 1016.6
20260502030509 76 213 0.0 0.0 0.00 0.00 0.00 68 1016.6
20260502030008 76 218 0.0 0.0 0.00 0.00 0.00 68 1016.5
20260502025517 76 219 0.0 0.0 0.00 0.00 0.00 68 1016.5
20260502025007 76 219 0.0 0.0 0.00 0.00 0.00 68 1016.6
20260502024509 76 208 0.0 0.0 0.00 0.00 0.00 68 1016.5
20260502024007 76 203 0.0 0.0 0.00 0.00 0.00 68 1016.5
20260502023507 76 203 0.0 0.0 0.00 0.00 0.00 68 1016.4
20260502023008 76 203 0.0 0.0 0.00 0.00 0.00 68 1016.4
20260502022506 76 212 0.0 0.0 0.00 0.00 0.00 68 1016.3
20260502022008 77 228 0.0 0.0 0.00 0.00 0.00 67 1016.1
20260502021505 77 211 0.0 0.0 0.00 0.00 0.00 67 1016.1
20260502021007 77 211 0.0 0.0 0.00 0.00 0.00 67 1016.1
20260502020506 77 210 0.0 0.0 0.00 0.00 0.00 67 1016.1
20260502020006 77 169 0.0 0.0 0.00 0.00 0.00 67 1016.1
20260502015510 77 133 0.0 0.0 0.00 0.00 0.00 67 1016.1
20260502015006 77 156 0.0 0.0 0.00 0.00 0.00 67 1016.0
20260502014508 77 167 0.0 0.0 0.00 0.00 0.00 66 1015.9
20260502014004 77 116 0.0 0.0 0.00 0.00 0.00 66 1016.0
20260502013504 77 170 0.0 0.0 0.00 0.00 0.00 66 1015.9
20260502013009 77 124 0.0 0.0 0.00 0.00 0.00 66 1015.8
20260502012505 77 205 0.0 0.0 0.00 0.00 0.00 66 1015.7
20260502012005 77 201 0.0 0.0 0.00 0.00 0.00 66 1015.7
20260502011504 77 171 0.0 0.0 0.00 0.00 0.00 66 1015.7
20260502011004 77 165 0.0 0.0 0.00 0.00 0.00 66 1015.6
20260502010511 77 146 0.0 0.0 0.00 0.00 0.00 66 1015.6
20260502010012 77 161 0.0 0.0 0.00 0.00 0.00 66 1015.6
20260502005503 77 134 0.0 0.0 0.00 0.00 0.00 66 1015.5
20260502005005 77 148 0.0 0.0 0.00 0.00 0.00 66 1015.6
20260502004508 78 160 0.0 0.0 0.00 0.00 0.00 66 1015.6
20260502004006 78 136 0.0 0.0 0.00 0.00 0.00 66 1015.5
20260502003502 78 136 0.0 0.0 0.00 0.00 0.00 66 1015.4
20260502003002 78 147 0.0 0.0 0.00 0.00 0.00 66 1015.4
20260502002502 78 134 0.0 0.0 0.00 0.00 0.00 66 1015.5
20260502002002 78 174 0.0 0.0 0.00 0.00 0.00 66 1015.5
20260502001502 78 134 0.0 0.0 0.00 0.00 0.00 66 1015.5
20260502001003 78 129 0.0 0.0 0.00 0.00 0.00 66 1015.4
20260502000600 78 117 0.0 0.0 0.00 0.00 0.00 66 1015.2
20260502000501 78 128 0.0 0.0 0.00 0.00 0.00 66 1015.2
20260502000001 78 129 0.0 0.0 0.00 0.00 0.00 66 1015.2
20260501235603 78 162 0.0 0.0 0.00 0.00 0.00 66 1015.1
20260501235101 78 177 0.0 0.0 0.00 0.00 0.00 65 1015.1
20260501234603 78 131 0.0 0.0 0.00 0.00 0.00 65 1015.2
20260501234100 79 135 0.0 0.0 0.00 0.00 0.00 65 1015.1
20260501233600 79 91 0.0 0.0 0.00 0.00 0.00 65 1015.0
20260501233103 79 91 0.0 0.0 0.00 0.00 0.00 65 1014.9
20260501232558 79 172 0.0 0.0 0.00 0.00 0.00 65 1014.9
20260501232102 79 117 0.0 0.0 0.00 0.00 0.00 64 1014.9
20260501231600 79 95 0.0 0.0 0.00 0.00 0.00 64 1014.8
20260501231059 79 88 0.0 0.0 0.00 0.00 0.00 65 1014.7
20260501230559 79 84 0.0 0.0 0.00 0.00 0.00 64 1014.8
20260501225558 79 116 0.0 0.0 0.00 0.00 0.00 65 1014.8
20260501225059 80 179 0.0 0.0 0.00 0.00 0.00 65 1014.8
20260501224602 80 132 0.0 0.0 0.00 0.00 0.00 65 1014.7
20260501224101 80 111 0.0 0.0 0.00 0.00 0.00 65 1014.6
20260501223558 80 167 0.0 0.0 0.00 0.00 0.00 65 1014.6
20260501223057 80 149 0.0 0.0 0.00 0.00 0.00 65 1014.5
20260501222602 80 126 0.0 0.0 0.00 0.00 0.00 64 1014.6
20260501222100 80 110 0.0 0.0 0.00 0.00 0.00 64 1014.5
20260501221600 80 164 0.0 0.0 0.00 0.00 0.00 65 1014.5
20260501221100 81 118 0.0 0.0 0.00 0.00 0.00 64 1014.5
20260501220555 81 194 0.0 0.0 0.00 0.00 0.00 64 1014.4
20260501215555 81 210 0.0 0.0 0.00 0.00 0.00 64 1014.3
20260501215056 81 174 0.0 0.0 0.00 0.00 0.00 64 1014.2
20260501214555 82 184 0.0 0.0 0.00 0.00 0.00 64 1014.3
20260501214055 82 147 0.0 0.0 0.00 0.00 0.00 64 1014.3
20260501213558 82 175 0.0 0.0 0.00 0.00 0.00 63 1014.3
20260501213101 82 115 0.0 0.0 0.00 0.00 0.00 63 1014.4
20260501212556 82 173 0.0 0.0 0.00 0.00 0.00 64 1014.3
20260501212056 82 219 0.0 0.0 0.00 0.00 0.00 64 1014.2
20260501211556 82 177 0.0 0.0 0.00 0.00 0.00 64 1014.1
20260501211052 82 148 0.0 0.0 0.00 0.00 0.00 64 1014.1
20260501210552 82 124 0.0 0.0 0.00 0.00 0.00 64 1014.1
20260501210052 82 155 0.0 0.0 0.00 0.00 0.00 63 1014.2
20260501205551 82 155 0.0 0.0 0.00 0.00 0.00 63 1014.1
20260501205054 82 153 0.0 0.0 0.00 0.00 0.00 63 1014.2
20260501204552 82 131 0.0 0.0 0.00 0.00 0.00 63 1014.2
20260501204052 82 120 0.0 0.0 0.00 0.00 0.00 63 1014.1
20260501203550 83 119 0.0 0.0 0.00 0.00 0.00 63 1014.0
20260501203056 83 174 0.0 0.0 0.00 0.00 0.00 63 1014.2
20260501202550 83 205 0.0 0.0 0.00 0.00 0.00 62 1014.1
20260501202052 83 203 0.0 0.0 0.00 0.00 0.00 62 1014.1
20260501201557 84 192 0.0 0.0 0.00 0.00 0.00 62 1014.0
20260501201048 84 155 0.0 0.0 0.00 0.00 0.00 61 1014.0
20260501200551 85 140 0.0 0.0 0.00 0.00 0.00 60 1013.9
20260501200048 85 182 0.0 0.0 0.00 0.00 0.00 61 1014.1
20260501195548 85 136 0.0 0.0 0.00 0.00 0.00 60 1014.1
20260501195049 85 146 0.0 0.0 0.00 0.00 0.00 60 1014.1
20260501194602 85 164 0.0 0.0 0.00 0.00 0.00 60 1014.1
20260501194047 85 108 0.0 0.0 0.00 0.00 0.00 60 1014.2
20260501193551 85 228 0.0 0.0 0.00 0.00 0.00 60 1014.3
20260501193047 85 135 0.0 0.0 0.00 0.00 0.00 60 1014.2
20260501192547 85 156 0.0 0.0 0.00 0.00 0.00 60 1014.2
20260501192046 85 108 0.0 0.0 0.00 0.00 0.00 60 1014.3
20260501191554 86 134 0.0 0.0 0.00 0.00 0.00 58 1014.3
20260501191045 86 146 0.0 0.0 0.00 0.00 0.00 59 1014.4
20260501190545 85 128 0.0 0.0 0.00 0.00 0.00 59 1014.4
20260501190050 85 185 0.0 0.0 0.00 0.00 0.00 59 1014.4
20260501185544 85 131 0.0 0.0 0.00 0.00 0.00 59 1014.3
20260501185044 85 177 0.0 0.0 0.00 0.00 0.00 59 1014.3
20260501184549 85 118 0.0 0.0 0.00 0.00 0.00 59 1014.3
20260501184043 86 198 0.0 0.0 0.00 0.00 0.00 58 1014.3
20260501183542 86 210 0.0 0.0 0.00 0.00 0.00 58 1014.4
20260501183042 86 146 0.0 0.0 0.00 0.00 0.00 58 1014.5
20260501182540 86 165 0.0 0.0 0.00 0.00 0.00 58 1014.5
20260501182040 86 133 0.0 0.0 0.00 0.00 0.00 57 1014.5
20260501181606 86 141 0.0 0.0 0.00 0.00 0.00 57 1014.5
20260501181040 86 131 0.0 0.0 0.00 0.00 0.00 58 1014.6
20260501180540 86 129 0.0 0.0 0.00 0.00 0.00 57 1014.6
20260501180044 86 165 0.0 0.0 0.00 0.00 0.00 58 1014.7
20260501175540 86 142 0.0 0.0 0.00 0.00 0.00 58 1014.8
20260501175039 85 196 0.0 0.0 0.00 0.00 0.00 58 1014.9
20260501174539 85 148 0.0 0.0 0.00 0.00 0.00 58 1014.9
20260501174039 85 182 0.0 0.0 0.00 0.00 0.00 60 1014.9
20260501173540 85 128 0.0 0.0 0.00 0.00 0.00 59 1015.0
20260501173100 85 174 0.0 0.0 0.00 0.00 0.00 59 1015.1
20260501172538 85 144 0.0 0.0 0.00 0.00 0.00 60 1015.2
20260501172036 85 148 0.0 0.0 0.00 0.00 0.00 60 1015.1
20260501171538 85 136 0.0 0.0 0.00 0.00 0.00 60 1015.1
20260501171039 85 211 0.0 0.0 0.00 0.00 0.00 59 1015.3
20260501170539 86 158 0.0 0.0 0.00 0.00 0.00 59 1015.4
20260501170037 86 157 0.0 0.0 0.00 0.00 0.00 59 1015.4
20260501165537 86 129 0.0 0.0 0.00 0.00 0.00 58 1015.5
20260501165036 86 154 0.0 0.0 0.00 0.00 0.00 58 1015.6
20260501164545 86 180 0.0 0.0 0.00 0.00 0.00 58 1015.5
20260501164035 86 148 0.0 0.0 0.00 0.00 0.00 57 1015.7
20260501163539 86 139 0.0 0.0 0.00 0.00 0.00 58 1015.7
20260501163036 86 119 0.0 0.0 0.00 0.00 0.00 59 1015.7
20260501162536 86 194 0.0 0.0 0.00 0.00 0.00 59 1015.8
20260501162037 87 161 0.0 0.0 0.00 0.00 0.00 58 1015.8
20260501161536 87 146 0.0 0.0 0.00 0.00 0.00 57 1015.8